Location: Bruderhein
(53.8035°N, 112.9265°W)
Time: 10:34:32
(UTC+00:00)

deb Agena D - Pass Details

Date: 10 December 2023
Orbit: 760 x 888 km, 99.8° (Epoch: 04 March)

Event Time Altitude Azimuth Distance (km) Brightness Sun altitude
Rises 13:44:11 0° 154° (SSE) 3,475 ? -15.5°
Reaches altitude 10° 13:46:35 10° 153° (SSE) 2,530 ? -15.2°
Maximum altitude 13:52:12 77° 69° (ENE) 892 ? -14.4°
Drops below altitude 10° 13:57:42 10° 344° (NNW) 2,475 ? -13.6°
Enters shadow 13:59:30 - 344° (NNW) 3,179 ? -13.4°
